Regional Weather Roundup
Issued by NWS

Home | Current Version | Previous Version | Text Only | Print | Product List | Glossary Off
Versions: 1 2 3 4 5 6 7 8 9 10 11 12 13 14 15 16 17 18 19 20 21 22 23 24 25 26 27 28 29 30 31 32 33 34 35 36 37 38 39 40 41 42 43 44 45 46 47 48 49 50

632
ASUS43 KFSD 032302
RWRSD

WEATHER ROUNDUP FOR SOUTH DAKOTA
NATIONAL WEATHER SERVICE SIOUX FALLS SD
600 PM CDT TUE MAY 03 2016

NOTE: "FAIR" INDICATES FEW OR NO CLOUDS BELOW 12,000 FEET WITH NO
SIGNIFICANT WEATHER AND/OR OBSTRUCTIONS TO VISIBILITY.


SDZ001>005-009-010-012>017-040000-
NORTHWEST AND NORTH CENTRAL SOUTH DAKOTA

CITY           SKY/WX    TMP DP  RH WIND       PRES   REMARKS
BUFFALO          N/A     77  34  21 N14       30.01S
FAITH            N/A     75  35  23 N20G25    30.02R
MOBRIDGE       SUNNY     77  41  27 N20G28    29.92R
$$

SDZ012>016-024>037-041>051-057-063-072>074-040000-
SOUTHWEST AND SOUTH CENTRAL SOUTH DAKOTA

CITY           SKY/WX    TMP DP  RH WIND       PRES   REMARKS
RAPID CTY ARPT SUNNY     72  36  26 N18       30.07S
PIERRE         SUNNY     76  40  27 NW20G25   29.92F
CUSTER         SUNNY     65  27  23 W5        30.16R
ELLSWORTH AFB  SUNNY     74  37  26 N16       30.07S
PHILIP         SUNNY     76  38  25 N12       30.00S
PINE RIDGE     SUNNY     71  35  26 N13       30.07S
WINNER         FAIR      74  42  31 NW16      29.97F
$$

SDZ004>011-016>023-039-040-040000-
NORTHEAST SOUTH DAKOTA

CITY           SKY/WX    TMP DP  RH WIND       PRES   REMARKS
ABERDEEN       SUNNY     72  25  17 N30G37    29.90R
WATERTOWN      SUNNY     71  30  21 N25G33    29.84R
BROOKINGS      MOSUNNY   72  39  30 N23G36    29.80S
SISSETON         N/A     70  25  18 N25G38    29.84R
$$

SDZ017-020-022-023-036>040-048>070-040000-
SOUTHEAST SOUTH DAKOTA

CITY           SKY/WX    TMP DP  RH WIND       PRES   REMARKS
SIOUX FALLS    PTSUNNY   72  42  34 W16G25    29.83F
HURON          SUNNY     76  40  27 NW24G31   29.84F
MITCHELL       SUNNY     75  45  34 NW20G26   29.87F
YANKTON        SUNNY     70  46  43 NW18      29.89F
$$

ABBREVIATIONS USED IN REMARKS
   TC - TEMPERATURE IN CELSIUS
  WCI - WIND CHILL INDEX
   HX - HEAT INDEX
  VSB - VISIBILITY





USA.gov is the U.S. government's official web portal to all federal, state and local government web resources and services.